Wind_Speed
73 74 76 79 79 78 77 77 76 72 70 70 68 66 65 61 58 61 57 55 65 67 57 55 56 56 53 51 50 48 50 51 48 46 47 49 51 52 49 47 47 45 46 47 42 39 39 37 35 34 34 35 34 35 35 35 36 36 35 37 39 38 37 35 33 31 30 30 29 29 29 29 29 29 28 28 28 27 26 25 23 22 23 25 26 27
72 75 77 77 76 75 75 76 76 73 71 68 67 67 66 63 59 58 55 53 63 67 54 47 50 54 54 50 49 49 50 50 48 46 48 50 52 53 50 47 46 44 48 48 40 38 37 34 33 32 32 31 31 31 32 33 34 35 37 38 37 36 36 35 33 31 31 30 29 29 29 29 30 29 29 29 29 29 29 29 28 25 26 27 28 28
74 76 75 75 74 73 74 75 75 73 71 69 69 68 67 67 61 51 53 57 62 63 50 43 47 50 52 50 47 49 50 49 49 47 48 50 52 53 50 47 46 46 50 47 40 38 36 32 31 30 30 30 29 29 30 32 33 34 36 35 35 35 35 34 33 32 31 30 28 28 29 30 30 29 29 29 30 31 31 31 31 30 29 30 30 29
74 74 72 72 72 72 73 74 73 72 71 71 73 70 68 69 62 54 57 61 60 58 49 43 46 48 49 49 47 49 50 49 50 48 48 50 52 52 49 47 46 47 50 48 41 38 35 32 30 29 30 29 28 28 30 32 32 31 32 33 34 34 33 33 32 31 30 29 29 29 30 30 31 30 30 30 30 31 32 33 33 32 32 32 32 31
70 69 70 71 71 71 72 72 72 72 71 72 74 70 67 66 62 59 58 58 58 55 48 42 44 49 48 48 47 47 49 50 50 49 48 50 52 50 48 47 47 48 50 48 42 38 35 32 30 30 30 28 29 30 32 32 29 28 30 33 33 31 31 31 31 30 29 29 30 30 31 32 32 31 30 30 30 31 33 34 34 34 33 33 33 32
68 66 68 69 69 69 70 71 72 71 70 72 74 69 67 64 61 59 53 53 59 55 50 45 44 49 47 46 46 45 46 48 49 50 48 49 51 50 48 48 48 48 48 46 42 39 37 34 32 31 30 30 31 32 32 30 26 27 31 33 31 29 30 30 29 29 27 27 29 31 33 33 33 32 29 29 31 33 34 35 35 34 34 34 35 33
68 67 67 67 66 68 69 70 71 69 68 71 72 67 66 61 53 54 52 53 60 56 51 48 45 47 46 44 45 43 43 46 47 48 47 48 50 49 47 47 47 47 46 45 42 40 39 37 35 32 31 32 33 33 32 28 25 28 32 32 30 29 29 28 28 28 26 26 28 31 33 34 32 30 28 30 32 34 36 37 36 35 34 35 33 30
65 61 59 64 65 67 68 69 71 69 67 70 71 67 67 62 53 53 54 54 58 54 50 49 45 45 46 43 43 42 41 43 44 45 46 48 48 49 47 45 45 44 44 44 42 39 39 38 35 33 33 33 34 33 30 26 27 30 32 31 29 28 28 27 27 28 27 26 27 29 31 31 28 27 29 32 34 35 36 37 37 35 34 33 30 28
61 52 49 59 63 65 67 69 70 68 67 67 67 67 67 64 58 55 50 49 52 51 50 49 47 46 48 45 42 42 42 43 44 43 44 45 45 46 45 44 44 43 42 42 41 38 37 36 36 35 35 34 34 33 29 28 29 31 32 30 29 28 27 26 27 27 25 25 26 26 25 24 24 26 30 32 33 34 35 37 36 34 33 31 31 31
56 50 44 54 62 64 65 66 65 67 68 64 61 64 64 60 58 56 51 47 49 51 51 50 49 49 49 44 39 43 45 44 43 42 42 41 42 44 45 43 44 43 42 40 39 37 35 35 37 37 36 35 34 33 30 29 30 32 32 30 28 27 26 26 27 25 23 25 26 25 22 23 25 27 29 31 31 31 33 35 34 33 33 34 34 35
45 47 47 54 61 63 63 63 64 66 68 63 57 60 61 57 55 56 54 48 47 53 53 50 49 49 49 43 39 43 46 43 42 41 39 39 41 43 43 43 44 43 40 38 37 37 36 37 38 38 37 36 35 33 31 30 31 33 32 29 28 27 25 25 26 24 23 25 28 28 27 27 27 28 29 30 30 30 32 33 32 32 34 35 36 36
37 47 53 55 59 60 58 62 63 62 66 61 48 48 56 59 53 51 52 49 49 56 55 50 48 51 51 45 41 44 47 43 40 38 37 38 41 41 40 41 43 42 39 38 37 37 37 38 38 39 39 38 36 34 32 31 33 34 32 29 28 26 24 24 25 25 25 26 29 30 29 28 28 28 29 30 30 31 32 33 33 33 33 33 35 36
37 48 54 52 57 59 54 56 56 53 61 60 43 41 53 59 56 52 53 52 53 55 53 51 51 54 51 44 41 41 44 44 37 35 38 38 38 37 36 39 41 40 39 38 37 37 35 35 36 38 39 39 37 35 33 32 34 34 32 30 28 25 23 22 24 26 26 27 28 29 29 28 28 29 30 31 31 31 32 33 35 34 32 32 34 35
35 43 50 48 53 60 53 51 52 51 60 59 48 47 55 59 60 57 55 53 52 52 52 50 53 56 50 45 43 37 40 45 39 37 40 36 35 35 34 37 39 39 39 37 37 36 33 33 35 37 39 39 37 36 35 33 34 35 33 30 28 24 22 22 24 27 27 27 27 28 27 27 28 29 30 31 31 30 31 32 34 33 31 31 33 34
34 38 48 45 45 57 58 52 51 55 60 56 51 52 53 56 60 58 53 52 51 51 51 49 51 55 48 44 46 43 44 48 41 39 39 34 34 35 33 36 38 38 38 37 36 35 32 33 35 37 38 39 38 37 36 34 35 36 34 30 27 23 21 22 25 27 28 29 28 27 26 26 27 29 29 30 30 31 30 30 31 32 32 31 31 31
31 33 43 45 41 49 58 54 50 53 55 50 47 45 43 46 51 52 49 48 48 47 48 50 51 52 49 48 50 48 50 48 38 35 36 33 34 34 34 37 37 37 37 36 36 34 33 34 35 37 39 40 38 37 36 34 35 37 35 31 26 22 21 23 26 28 29 30 28 27 27 26 27 29 30 31 31 32 31 30 30 31 32 30 29 29
29 28 34 45 45 45 55 56 52 54 51 45 46 44 37 32 34 45 48 45 47 45 45 52 54 51 51 52 53 51 49 43 33 31 34 33 33 34 34 35 35 37 37 36 36 35 35 36 37 39 41 40 38 36 35 34 36 37 35 30 25 21 21 24 27 29 30 30 28 28 27 27 27 28 30 32 32 32 30 30 32 32 32 30 29 28
27 27 29 42 49 47 52 54 51 53 46 41 50 51 38 27 22 35 46 46 47 45 41 49 54 51 48 48 52 51 44 37 31 32 36 34 33 33 32 32 35 37 37 36 36 36 36 36 38 40 41 40 37 34 33 34 36 37 33 28 23 21 23 26 28 30 30 29 29 28 27 27 28 28 28 29 30 29 28 30 31 32 31 28 25 24
25 28 28 37 49 51 54 50 44 47 41 34 43 48 42 33 23 25 38 47 50 44 40 46 51 51 47 46 52 49 40 36 35 35 36 34 32 32 30 31 35 36 37 38 37 36 36 36 38 40 40 37 33 31 31 33 35 35 31 26 23 23 25 27 29 30 29 29 28 27 26 26 27 29 29 28 28 26 26 28 29 29 29 26 23 23
22 26 26 33 45 51 54 51 44 46 43 31 30 38 42 33 21 21 32 42 48 47 42 41 44 49 48 46 50 48 39 36 37 36 35 33 31 30 30 32 35 37 39 38 35 34 34 35 37 37 35 32 29 29 30 33 34 32 29 26 24 25 26 28 30 30 28 28 27 26 25 24 26 28 28 27 26 24 23 25 26 26 26 25 23 23
23 25 24 30 42 48 52 54 51 51 49 41 34 40 44 34 23 25 30 32 39 47 46 36 29 36 45 47 48 45 38 34 35 35 33 31 30 29 31 33 35 37 36 34 32 33 33 34 34 33 31 29 28 29 31 32 32 30 28 26 25 26 28 30 30 27 27 27 26 24 23 22 24 25 25 24 23 20 20 21 21 22 23 23 24 24
25 24 21 28 41 47 49 53 54 52 49 45 41 41 42 40 33 30 30 31 31 37 45 43 27 19 30 42 45 40 34 31 32 33 32 30 30 30 32 34 34 34 32 31 31 33 33 33 32 30 29 29 29 30 31 31 30 30 28 26 27 28 29 30 27 24 25 24 23 23 23 22 23 23 23 21 19 18 17 17 18 20 19 21 23 24
24 23 20 27 38 44 46 50 52 50 45 39 36 33 29 34 37 31 29 35 35 27 31 39 32 22 25 34 39 38 32 30 32 34 32 31 32 33 34 35 34 33 33 33 33 32 33 32 31 30 29 29 30 31 31 30 30 30 28 27 28 28 29 28 25 24 24 23 20 20 20 21 22 22 21 20 18 18 18 19 20 20 19 19 22 22
23 21 19 25 35 40 42 46 47 45 40 35 34 32 26 29 36 32 24 31 38 27 19 21 25 30 34 29 29 35 35 33 35 35 34 34 34 35 35 33 33 33 34 34 33 33 33 31 30 29 29 30 30 30 30 30 30 29 27 27 27 28 29 28 26 25 25 23 21 20 20 21 22 22 22 20 20 21 20 20 21 20 18 19 20 19
22 20 21 26 36 40 39 43 46 44 40 40 41 39 32 28 32 28 17 24 36 29 16 12 15 29 35 27 25 33 36 36 36 35 35 35 34 34 34 32 33 35 35 35 34 33 32 31 30 30 30 30 30 29 29 30 29 27 26 27 28 29 30 28 27 26 24 21 21 22 22 23 23 23 23 23 23 23 21 20 20 19 17 18 17 15
24 21 23 26 34 39 40 44 48 49 48 49 51 45 35 30 34 33 19 18 33 36 22 12 14 25 30 25 27 33 36 36 35 34 35 34 34 34 34 34 35 36 36 35 33 32 31 31 31 30 31 30 29 28 28 28 27 26 26 27 29 30 29 28 27 25 22 19 20 21 23 22 21 22 23 23 23 23 22 21 21 21 20 19 17 13
23 20 24 26 26 31 38 42 45 50 52 53 52 48 40 36 39 39 26 14 23 34 28 19 19 25 26 26 29 32 35 36 34 34 34 33 33 34 33 34 35 35 35 34 33 32 32 31 31 30 30 29 28 27 26 25 25 25 26 27 28 28 27 27 27 24 21 19 20 21 21 20 20 21 22 22 22 22 23 22 21 20 18 17 14 10
20 18 22 24 22 24 32 38 42 47 49 47 47 46 42 36 37 38 29 18 17 23 26 24 22 22 24 28 31 32 34 35 35 34 34 33 33 33 33 35 35 35 34 33 32 33 32 31 30 30 30 28 26 24 23 23 24 25 26 26 26 25 26 27 26 23 21 20 20 20 18 17 18 19 20 21 21 21 22 22 21 17 13 12 11 11
20 17 18 20 22 24 27 33 40 45 43 37 37 40 37 34 38 41 33 22 16 20 28 28 23 23 24 25 28 32 32 33 34 35 34 33 33 33 34 35 35 35 34 33 33 33 31 30 30 29 28 25 22 21 21 22 24 24 24 23 22 23 26 26 24 21 20 20 19 18 16 15 16 17 17 17 18 20 21 20 18 14 12 12 12 12
20 18 18 20 22 23 23 24 33 41 40 36 36 37 36 35 39 42 36 25 18 22 32 34 28 25 23 20 25 31 31 31 33 33 33 33 33 33 34 35 35 35 34 33 33 32 31 31 30 27 25 22 20 21 22 23 24 23 22 21 22 24 25 24 21 20 19 18 17 16 14 14 15 15 15 14 14 15 17 16 14 13 13 13 13 13
20 21 22 24 24 23 23 22 26 34 38 39 39 36 36 38 39 41 41 34 28 29 36 38 33 28 23 21 26 30 29 30 32 32 32 33 33 34 35 35 35 34 34 34 33 32 31 30 28 25 22 21 22 24 24 24 23 22 21 22 23 24 24 21 19 19 18 17 16 15 14 14 15 15 15 14 12 11 12 13 13 13 14 14 14 14
22 25 25 26 26 24 25 25 27 31 34 36 38 37 39 43 45 45 45 41 35 32 34 34 31 28 26 23 25 28 27 28 30 31 32 33 33 34 34 34 34 33 33 33 32 31 30 27 25 23 23 24 26 26 25 23 22 21 22 23 23 23 21 19 18 19 18 17 17 16 15 14 15 15 15 14 12 12 12 14 16 16 15 14 15 16
25 27 24 25 25 23 24 25 26 29 31 33 38 40 40 42 43 43 41 37 33 30 31 33 29 26 26 24 25 27 27 28 30 31 32 33 34 34 34 34 34 33 33 32 31 29 26 24 24 25 26 27 27 26 24 22 22 22 23 23 22 21 20 18 17 18 17 17 16 16 16 16 16 16 15 14 13 12 13 15 18 19 17 16 16 16
26 26 22 22 23 21 23 25 26 28 31 33 37 39 37 37 38 37 34 33 33 31 33 34 32 29 26 26 27 28 29 30 31 32 33 34 34 34 33 33 33 32 32 31 30 28 25 24 26 27 28 28 27 25 24 22 22 22 22 21 19 19 18 17 17 17 17 17 16 16 16 16 16 16 15 14 14 14 14 16 18 21 21 19 17 16
27 26 23 22 20 20 23 25 26 29 32 33 35 37 37 35 34 32 32 33 33 32 32 31 31 31 29 29 29 29 30 31 32 33 34 34 34 33 33 33 32 31 31 30 29 27 25 26 27 28 28 27 26 25 23 21 21 21 20 18 18 18 18 18 18 18 18 17 17 17 17 17 17 17 16 16 16 16 16 16 18 20 22 21 19 17
26 26 24 22 19 21 24 24 25 29 31 30 33 37 37 35 33 32 33 33 32 33 33 31 31 31 30 29 29 29 30 32 32 34 34 34 34 33 32 31 31 31 30 29 27 26 26 27 27 28 28 27 26 23 22 21 21 20 19 18 18 19 20 20 20 20 19 18 17 17 17 16 16 17 17 17 17 17 18 18 18 17 18 20 20 19
25 25 23 19 19 22 24 24 25 27 27 27 29 34 36 35 35 35 36 37 38 38 38 36 34 32 31 30 29 29 31 32 33 35 35 34 34 34 33 32 31 30 29 27 26 26 27 28 28 28 27 26 24 23 23 23 22 21 20 20 21 22 22 22 22 21 21 20 19 19 19 18 17 18 19 19 19 19 19 19 19 18 18 20 22 22
26 25 22 20 22 23 23 24 25 25 25 26 27 31 35 35 35 37 39 41 41 41 39 37 35 34 32 31 30 30 32 33 35 36 37 37 36 35 34 33 32 30 28 26 26 27 27 28 28 28 27 26 24 24 24 24 24 24 25 25 25 24 24 23 23 23 23 24 25 25 25 24 23 22 22 21 21 21 21 21 21 21 22 23 24 24
26 25 21 20 23 23 20 20 23 24 25 26 26 29 32 33 33 36 37 37 38 39 40 39 37 36 34 33 32 32 34 35 35 37 38 39 38 36 35 33 31 30 28 27 28 28 28 28 28 27 25 24 24 24 24 25 27 28 28 28 28 27 27 26 25 25 25 27 28 28 28 27 26 25 23 22 23 23 24 24 24 25 25 25 25 26
26 23 18 19 22 23 20 18 21 24 25 25 26 28 31 32 33 34 35 36 38 40 41 40 38 37 36 35 34 34 35 35 35 34 35 37 37 36 35 32 30 29 29 28 29 29 29 28 26 25 24 23 23 23 23 25 26 27 28 29 29 29 29 29 28 28 28 29 30 29 29 28 27 26 25 24 24 25 25 26 27 27 27 27 26 26
24 21 18 19 21 22 21 19 20 22 23 24 25 29 32 34 35 36 37 37 39 41 41 40 38 37 37 36 35 35 35 34 33 33 34 36 36 35 34 33 31 30 29 29 29 29 28 27 26 25 24 23 23 23 24 25 26 26 27 28 30 30 31 30 29 29 29 29 29 28 28 28 27 27 26 25 25 26 26 26 26 26 26 25 25 26
24 21 20 21 21 21 20 20 20 21 22 23 26 30 33 34 34 36 35 35 39 41 41 41 39 38 38 37 35 35 34 32 32 32 33 36 37 35 34 33 32 31 30 30 30 28 26 26 27 25 24 24 24 25 26 26 26 27 27 29 30 30 31 31 30 30 28 27 26 26 25 25 26 26 26 27 27 27 26 26 26 26 25 25 26 27
26 23 21 23 23 23 22 19 20 22 23 24 27 31 34 34 34 35 34 34 38 40 40 41 41 40 39 38 34 34 33 32 32 32 33 34 35 34 33 32 32 32 31 31 30 28 27 27 27 26 26 26 27 27 27 27 27 27 28 28 29 29 29 30 31 30 29 27 25 24 24 23 24 24 25 25 25 25 25 26 27 27 27 27 27 27
24 21 22 24 24 24 23 20 20 22 24 26 28 31 33 33 33 34 33 34 37 39 39 40 41 40 39 37 34 33 32 31 32 32 32 34 34 33 33 33 33 33 33 32 30 28 28 28 28 28 29 29 29 29 29 29 29 28 28 28 28 27 27 28 28 27 26 25 24 24 24 23 23 23 23 23 24 25 26 27 27 27 27 26 26 25
22 19 21 23 22 22 22 20 21 22 24 26 28 29 30 30 30 32 32 33 37 39 39 39 39 38 37 34 32 33 33 32 32 31 31 33 35 34 33 33 33 33 32 32 31 30 30 30 29 30 31 31 31 32 32 32 32 31 29 28 27 26 25 25 25 24 22 22 22 22 23 23 24 24 24 24 25 26 26 27 27 26 26 25 24 24
20 19 20 20 18 18 20 22 25 26 27 28 28 28 29 28 29 31 30 32 37 40 40 39 38 38 37 31 28 31 33 32 31 31 31 32 33 34 35 34 34 33 32 31 31 32 32 32 31 31 31 31 32 33 33 34 34 33 31 30 29 27 26 25 24 23 22 22 22 21 21 22 23 24 24 24 24 25 25 26 26 26 26 25 25 25
19 19 19 18 15 15 19 23 25 26 27 28 28 29 29 28 29 30 29 31 35 37 38 38 37 37 39 34 28 28 31 32 30 30 30 31 31 33 34 35 34 34 33 33 32 32 33 34 34 34 33 33 33 34 34 34 35 34 33 32 30 29 28 27 26 25 23 23 23 22 22 22 22 23 23 23 23 23 23 25 26 26 26 27 26 26
18 19 18 16 15 16 18 21 22 23 25 27 27 29 29 29 29 29 28 30 34 35 35 37 36 36 37 35 31 30 32 33 32 30 30 29 29 30 31 32 33 33 33 33 32 32 33 33 33 31 29 28 29 30 31 31 32 32 31 31 30 30 29 28 28 27 26 25 24 24 24 24 24 24 23 23 23 24 25 26 26 27 27 28 27 25
17 18 16 15 16 17 18 21 21 21 23 25 26 27 29 29 29 28 28 30 33 35 36 36 37 37 36 36 34 34 33 34 33 32 30 30 29 29 29 30 30 30 29 29 29 29 30 29 28 26 24 24 25 26 26 27 28 29 30 29 29 29 29 29 29 28 28 27 26 26 26 26 26 25 24 24 24 25 25 26 26 27 27 27 26 24
18 17 14 14 16 17 17 21 22 20 20 24 25 26 28 29 28 28 28 29 32 34 36 37 38 38 38 37 37 36 35 35 34 33 32 31 30 30 29 29 28 28 27 27 28 28 28 28 27 26 25 26 26 27 28 28 29 30 30 30 30 30 30 30 30 29 28 28 27 26 26 27 26 26 25 25 24 24 24 25 26 27 26 26 25 24
16 16 14 15 18 19 17 18 21 22 21 23 24 25 27 28 28 28 29 29 31 32 34 36 38 39 40 40 39 39 38 37 37 36 35 34 33 32 31 30 29 29 29 29 29 30 30 30 30 29 29 29 29 29 30 31 31 31 32 32 32 32 32 32 32 31 30 29 27 26 27 27 26 26 26 26 24 24 24 24 25 25 25 25 25 25
Wind_Direction
227 226 224 222 222 222 222 223 224 224 224 227 229 230 230 230 231 235 232 233 243 240 232 234 241 241 238 237 237 235 236 235 231 228 229 232 235 235 233 233 237 240 241 242 240 239 242 242 242 243 243 244 244 244 244 245 248 252 253 254 257 260 262 264 264 263 263 263 265 266 268 268 269 270 269 268 264 261 259 255 255 259 259 254 252 253
223 224 224 222 222 222 222 221 222 221 222 224 228 230 230 229 229 235 236 233 240 243 237 235 240 242 240 236 236 235 235 234 230 227 229 232 234 235 234 233 236 238 241 242 239 237 240 241 241 242 242 242 243 242 241 243 245 248 249 251 255 258 260 262 263 262 262 262 264 266 267 267 267 268 269 267 265 264 261 255 253 256 259 255 251 252
218 221 221 220 220 221 221 221 220 219 220 222 225 227 229 229 226 229 236 233 236 241 239 235 237 239 241 238 235 236 235 234 231 225 227 231 233 234 234 234 234 236 241 242 239 238 238 239 240 240 241 241 240 239 237 239 244 247 249 250 253 256 259 261 262 262 262 263 266 268 268 268 269 269 271 273 274 275 270 260 255 255 255 253 250 250
215 218 218 219 219 219 219 219 219 218 218 220 223 224 228 230 226 222 231 234 235 239 236 233 236 237 239 238 235 234 234 234 233 227 226 230 232 233 232 233 234 235 241 242 238 238 238 237 238 237 238 239 237 235 235 239 245 249 249 249 252 254 257 260 262 263 264 265 267 268 267 268 269 270 272 275 277 278 273 263 256 254 252 249 248 248
211 214 215 217 218 217 218 217 217 216 215 218 222 223 225 230 228 223 229 236 236 237 235 229 235 237 235 236 234 233 234 233 233 229 225 228 231 232 231 231 232 234 238 241 238 237 237 235 235 235 236 236 235 233 235 240 245 246 245 246 249 252 255 258 260 263 265 267 266 267 267 268 269 269 270 273 275 275 272 264 257 253 250 248 247 247
204 207 211 214 215 214 215 215 215 215 214 218 221 220 223 226 229 226 226 235 237 235 234 228 231 237 235 235 235 234 234 233 233 231 226 227 230 231 230 230 231 233 236 239 238 236 235 233 232 233 234 233 234 234 237 242 243 241 242 245 248 251 254 257 260 264 267 270 270 269 270 271 272 271 271 272 272 270 269 264 257 252 250 248 247 246
198 200 205 209 212 212 213 213 213 213 211 217 220 218 220 222 225 226 222 230 236 232 233 230 228 236 237 234 235 234 235 234 233 233 229 226 229 230 230 231 232 233 236 238 237 234 232 232 230 232 233 232 233 235 239 242 240 239 242 246 250 252 255 259 264 266 268 273 275 272 271 272 274 274 273 272 271 269 267 263 256 253 251 248 246 246
195 195 201 204 207 210 211 211 212 210 209 215 218 215 217 217 217 222 222 227 234 232 232 232 226 232 236 234 235 234 233 236 233 231 231 227 228 230 230 231 233 234 235 238 237 233 231 231 230 230 233 232 233 237 239 239 238 239 243 247 250 252 257 263 266 266 266 270 275 274 272 272 272 274 273 273 273 270 265 260 254 251 249 246 245 249
195 190 196 202 203 207 211 211 211 209 207 212 217 215 216 217 217 221 220 222 230 229 230 232 227 227 232 231 234 235 231 233 233 229 230 229 227 230 229 230 232 233 234 236 238 235 230 229 229 230 232 232 233 237 238 236 237 240 244 247 250 254 258 263 266 265 264 265 271 275 275 272 271 273 275 275 276 270 262 258 253 248 247 247 248 251
198 188 190 199 201 204 208 210 210 209 207 208 213 215 215 216 218 219 218 217 225 227 225 230 229 226 229 229 230 236 232 230 233 229 228 229 227 229 229 228 230 231 232 233 236 236 230 227 227 228 230 232 234 236 236 235 237 241 245 248 251 255 258 261 264 265 265 264 265 266 267 271 273 274 275 275 275 269 260 257 254 249 248 249 250 253
201 192 188 195 200 203 206 206 207 208 206 206 210 214 212 212 216 218 219 219 224 228 223 225 231 229 228 227 227 235 236 232 233 232 228 228 227 227 227 226 228 230 231 232 234 234 230 226 224 225 227 231 233 235 236 236 239 243 246 249 252 255 258 259 262 265 266 265 263 260 262 270 276 276 275 273 272 269 262 259 257 254 250 249 252 254
199 199 193 194 198 200 204 204 205 207 205 202 206 211 208 208 211 214 217 217 219 226 223 219 228 232 228 224 225 233 238 235 234 234 230 228 228 227 225 225 228 229 229 231 232 232 229 225 223 223 225 229 231 234 235 236 240 244 247 249 252 255 255 257 262 265 266 266 265 263 265 270 273 274 275 272 269 267 264 260 259 257 253 248 250 251
198 203 197 197 198 196 200 201 200 204 202 197 199 205 204 204 207 209 213 216 218 223 223 218 222 230 228 222 223 232 239 236 232 233 231 227 229 229 225 225 227 227 227 229 232 232 228 225 224 224 226 229 231 233 234 236 241 245 247 249 251 253 253 256 261 264 265 266 267 268 269 271 273 274 274 271 266 264 263 258 255 255 252 246 247 248
197 200 197 199 200 197 196 194 194 200 197 194 198 204 204 204 207 210 212 216 218 219 221 220 221 227 229 226 221 223 235 233 225 228 229 224 226 228 224 225 225 225 226 227 230 232 228 225 226 226 228 230 231 232 234 236 241 245 247 248 249 251 253 256 260 263 264 265 267 269 271 272 274 276 275 272 267 265 264 259 252 251 249 246 247 247
194 197 196 195 198 201 197 190 194 200 194 194 201 204 205 207 210 213 212 213 216 218 219 220 222 225 226 228 225 221 230 231 222 224 228 222 222 224 221 222 223 222 223 225 228 231 228 225 226 227 229 231 231 232 235 236 241 246 247 248 250 251 253 257 260 263 264 264 266 269 271 274 275 275 275 274 271 268 266 261 253 247 244 243 244 245
192 195 199 195 193 201 199 190 193 196 192 195 200 197 198 205 211 213 210 212 214 216 218 219 221 223 221 224 225 223 229 231 223 225 230 225 222 222 220 220 220 220 221 222 225 227 224 223 225 227 230 231 232 233 235 237 241 246 248 249 251 252 254 257 261 263 263 264 268 271 273 276 277 276 274 272 271 268 265 260 252 243 239 240 242 244
188 192 201 198 192 197 198 193 193 191 189 196 198 193 193 195 206 210 209 212 214 213 218 221 221 222 221 224 226 224 227 228 223 226 230 227 223 223 222 220 219 219 219 220 223 224 221 220 223 226 230 232 233 234 234 236 241 246 249 250 251 252 254 257 261 262 263 267 271 272 271 272 275 277 276 273 272 268 261 256 249 241 238 239 242 245
187 196 203 197 192 194 195 193 193 190 189 199 199 195 192 184 196 209 208 211 214 211 216 223 222 220 221 226 228 227 227 226 221 222 226 224 221 222 222 220 219 219 219 219 222 223 220 219 222 226 231 233 234 235 234 235 240 245 248 249 250 251 253 257 260 262 265 270 272 270 269 270 272 275 277 277 276 268 256 249 245 240 238 237 238 242
186 197 206 200 193 193 190 186 187 189 187 195 199 195 187 182 187 201 204 209 212 209 213 223 224 219 218 225 229 225 223 222 218 220 225 223 220 220 218 217 219 217 217 218 220 223 223 222 223 226 231 235 236 236 234 234 239 244 247 247 248 249 252 257 260 263 268 272 273 270 270 272 272 274 277 280 281 271 252 242 240 237 236 234 231 235
178 188 200 202 196 193 190 183 181 186 182 178 190 191 185 186 191 196 200 206 209 208 211 220 226 223 218 223 230 227 218 219 219 218 223 222 219 219 215 215 217 216 217 217 218 223 225 224 226 229 233 235 235 233 231 233 237 242 244 245 246 249 252 257 259 263 270 274 276 276 275 275 274 275 277 280 283 275 252 239 237 234 234 233 231 234
167 181 194 198 194 193 194 191 187 186 181 176 183 187 185 190 197 198 200 201 206 210 210 212 221 228 224 222 228 228 218 216 220 219 220 220 217 216 214 214 216 217 218 216 217 221 224 225 227 229 231 231 229 229 229 231 236 239 241 243 246 249 252 256 260 268 275 276 279 280 278 276 273 273 275 277 282 275 253 242 237 233 232 232 234 239
162 175 188 192 192 193 195 197 194 188 182 181 183 183 188 196 196 195 198 197 201 211 214 213 210 219 229 225 226 228 219 214 219 219 217 216 214 212 212 213 214 216 217 216 217 220 222 224 225 225 225 225 224 226 227 231 235 237 239 241 244 248 252 257 264 272 274 275 278 278 275 273 269 269 271 272 274 270 260 255 247 237 234 236 239 244
160 168 178 186 191 194 195 197 196 188 180 180 180 177 187 200 197 194 197 197 196 199 213 220 216 211 225 228 224 223 218 212 215 216 214 213 212 211 211 211 211 211 213 214 216 218 219 221 221 221 221 221 222 224 227 230 234 236 238 240 244 249 254 260 265 265 264 266 272 272 269 267 267 268 269 268 270 269 270 271 260 243 237 241 245 248
162 164 167 177 188 195 197 198 195 186 180 179 177 178 188 196 194 191 194 199 196 189 191 208 213 215 221 226 221 216 214 213 212 212 211 211 211 211 212 210 207 207 210 212 213 215 217 218 218 218 219 220 221 224 227 231 234 236 238 241 245 251 256 259 262 261 260 263 267 268 267 266 267 269 269 270 270 267 269 272 262 247 241 244 247 250
164 162 161 173 186 190 193 196 192 184 183 185 182 182 187 192 191 186 188 203 200 189 176 176 200 215 217 218 213 209 210 213 212 211 211 211 210 211 211 207 204 206 208 210 211 213 214 215 216 216 218 220 222 225 228 232 235 236 237 240 245 251 255 258 261 263 265 267 267 266 266 266 267 269 271 270 268 266 268 267 260 254 251 248 247 250
166 169 165 172 186 190 191 195 194 188 188 190 189 187 187 191 190 184 180 200 202 195 186 175 203 215 212 207 206 204 206 210 209 209 211 210 209 209 208 205 204 206 207 208 209 211 212 214 215 216 219 222 224 226 230 234 235 235 236 240 245 250 256 260 262 265 269 271 269 268 269 271 272 274 274 270 265 264 265 264 261 258 253 248 247 248
164 170 164 166 183 196 198 199 197 195 193 193 193 192 190 190 189 185 177 179 197 197 191 191 209 214 210 207 206 204 205 207 207 207 208 207 207 207 205 203 204 206 207 208 208 209 211 213 215 218 220 223 225 226 230 233 234 236 238 242 247 252 257 260 262 266 269 269 268 270 274 279 281 280 277 271 263 260 260 262 263 258 249 244 243 241
155 159 160 163 176 194 202 201 197 196 196 195 195 195 193 189 188 187 182 176 180 182 183 194 204 201 201 207 207 204 205 206 206 206 206 205 204 203 202 202 204 206 207 207 207 208 211 213 215 218 220 221 222 224 228 232 235 237 240 243 248 253 258 260 262 267 270 270 270 271 274 278 281 281 276 270 265 259 258 258 256 251 242 238 237 236
149 150 156 163 173 183 194 201 200 197 195 194 194 195 194 190 189 189 186 180 172 170 180 192 195 188 192 202 203 203 205 205 205 205 204 204 202 200 200 201 203 205 205 205 206 208 210 212 214 216 216 217 218 221 226 231 233 236 239 244 250 254 257 260 263 268 270 271 271 270 271 276 280 279 276 275 269 260 253 250 246 241 237 238 238 240
152 156 158 159 165 171 179 193 202 201 197 195 194 194 195 192 190 190 188 179 169 177 188 193 192 189 190 192 198 202 203 203 204 204 203 202 200 199 199 200 202 204 203 204 206 207 208 210 211 212 212 212 214 218 222 225 229 234 240 246 251 254 256 259 262 264 267 269 268 265 267 274 278 277 277 282 282 267 249 239 235 235 239 245 246 248
161 163 162 161 161 167 172 179 193 199 199 199 197 194 194 194 193 192 190 184 175 179 188 192 194 196 194 192 197 201 201 200 200 200 200 200 198 198 199 200 201 202 202 203 205 206 207 208 209 210 210 209 210 214 219 224 230 237 244 249 252 255 258 259 260 263 265 265 264 261 262 267 275 278 278 282 290 285 262 244 240 241 246 252 255 255
163 161 161 167 170 178 183 182 189 194 196 198 199 196 195 196 197 197 196 193 185 180 182 186 192 198 199 199 200 201 200 197 196 197 198 197 197 197 198 199 200 201 201 202 204 205 206 207 208 208 207 207 210 215 220 227 235 243 249 251 254 256 258 258 259 262 263 262 260 260 262 264 270 276 280 282 285 287 279 264 257 255 256 257 258 258
161 161 162 169 176 183 187 188 191 191 191 197 201 200 199 200 200 199 197 194 192 187 182 181 184 191 196 197 199 200 199 195 193 193 194 195 196 197 197 198 199 199 200 201 202 202 203 204 206 206 206 209 214 219 225 232 241 247 251 252 253 254 255 256 257 259 261 262 262 262 264 266 267 269 275 281 281 280 279 273 268 264 261 260 261 262
159 160 159 167 175 177 179 185 189 189 189 194 198 199 200 201 201 198 192 188 188 187 186 184 183 187 193 195 196 198 196 192 190 190 192 194 196 196 196 197 197 197 198 200 200 200 201 204 206 207 209 213 218 223 229 236 243 247 249 250 251 253 254 255 256 258 260 262 262 263 263 264 265 265 269 277 281 281 281 280 276 268 261 262 268 268
158 162 159 161 165 168 173 180 186 189 191 193 194 195 196 197 198 192 187 185 183 183 186 187 185 187 192 193 195 196 194 191 189 188 190 193 195 195 196 195 194 196 198 200 200 200 203 207 209 210 213 218 222 227 232 237 240 242 244 246 248 250 253 254 255 256 259 261 262 262 260 260 262 264 269 274 279 281 282 284 283 274 265 264 269 270
160 163 159 156 156 162 172 179 183 187 190 193 196 195 193 192 191 185 182 183 181 180 184 186 186 189 191 191 193 194 193 191 189 188 190 192 193 194 193 192 193 197 200 201 201 203 205 208 210 213 217 221 225 229 233 234 234 236 240 245 249 252 254 256 256 257 260 262 263 261 258 256 258 264 271 275 277 279 280 281 283 277 267 264 266 269
156 156 153 153 155 162 170 176 181 184 186 191 197 196 193 190 186 181 179 179 179 181 183 184 185 188 188 187 191 194 194 193 190 189 189 191 192 191 189 190 194 198 200 202 202 203 205 208 211 216 220 224 228 230 232 232 233 237 242 249 254 255 257 259 261 262 264 265 265 262 259 256 258 266 272 274 276 277 278 279 280 276 270 267 268 272
153 154 153 151 153 162 170 176 180 182 184 189 192 192 192 190 185 182 181 181 181 182 183 183 184 187 186 185 188 193 195 195 193 190 189 189 191 191 189 191 194 196 199 202 203 205 208 211 216 220 224 227 229 231 233 234 237 242 248 253 257 259 261 263 265 268 269 270 269 267 265 263 263 266 268 268 269 271 273 276 277 276 274 273 273 275
154 157 157 152 153 161 168 175 181 183 186 189 189 188 187 186 184 184 183 183 183 182 181 183 185 186 186 184 187 193 196 196 195 193 191 188 189 190 190 192 194 195 198 202 204 208 213 216 219 222 225 228 229 232 235 238 241 246 250 254 258 261 263 265 267 271 273 274 274 273 270 268 267 266 265 263 263 265 267 271 273 274 275 275 276 277
157 158 155 153 155 158 160 171 185 188 187 188 186 183 180 178 180 181 182 184 185 183 183 185 186 187 186 185 188 193 196 195 194 194 192 189 189 190 191 193 195 197 200 203 206 210 213 215 218 220 223 226 229 233 238 240 243 247 251 255 258 260 262 264 267 270 271 272 273 272 270 268 267 266 264 262 263 265 268 271 272 273 274 274 275 274
160 156 151 152 154 158 163 173 183 186 187 186 182 177 176 177 179 180 182 185 187 185 184 185 188 189 187 187 189 193 194 193 191 192 193 193 192 193 194 196 198 200 202 205 208 211 214 216 218 221 224 228 232 236 240 242 245 249 253 256 257 259 262 263 266 268 269 267 266 266 267 266 266 265 263 262 263 266 270 273 273 273 272 272 272 272
158 152 148 151 154 162 172 177 179 180 179 177 175 175 177 179 181 181 183 186 187 185 184 186 190 192 190 189 192 193 193 192 191 191 193 194 195 197 199 200 201 203 205 207 210 214 217 220 223 226 229 233 238 241 244 246 249 253 256 257 257 259 261 262 263 265 265 264 262 262 264 264 263 262 261 262 264 267 270 272 273 273 273 273 273 274
154 153 157 159 160 168 177 178 176 177 174 172 174 177 179 182 183 183 184 186 185 184 185 187 191 193 193 194 194 194 193 194 194 194 195 196 198 200 203 204 204 205 207 210 214 218 222 226 229 231 234 238 242 245 247 250 254 257 258 258 257 258 259 260 262 263 263 263 261 259 259 260 260 259 258 260 264 267 269 270 271 272 273 273 274 275
156 160 167 167 167 171 174 171 173 177 176 175 177 180 182 184 183 182 184 185 185 185 187 189 192 194 196 198 200 198 196 195 195 196 196 197 198 200 201 203 204 206 210 214 218 221 225 228 232 235 239 242 246 248 251 253 257 259 259 257 256 256 257 258 261 264 264 263 260 257 256 256 256 257 258 260 264 267 267 268 269 271 272 271 271 272
165 163 162 162 165 169 170 170 173 178 178 176 177 180 182 182 182 183 184 185 185 186 189 191 193 195 198 200 202 204 203 200 199 200 199 197 198 200 201 203 206 210 216 220 224 226 228 231 233 235 239 243 247 250 253 254 257 260 260 258 256 255 254 255 258 262 263 262 260 257 255 254 254 255 258 260 262 263 264 265 267 269 270 269 267 267
175 168 163 161 160 164 170 172 173 174 174 174 175 177 178 179 182 185 185 184 185 188 191 192 194 198 201 201 198 200 204 204 204 206 205 203 203 205 208 210 213 217 222 227 230 232 235 239 241 243 245 249 252 254 256 256 257 259 259 259 257 255 255 254 256 260 262 262 261 259 256 254 253 254 256 256 257 258 260 263 265 267 268 267 266 265
178 175 175 173 165 164 171 174 174 173 173 174 175 175 175 178 183 185 185 183 185 187 190 192 194 197 202 203 198 195 200 204 207 208 209 209 210 211 214 217 221 224 228 231 234 236 239 243 246 248 250 251 251 251 251 251 253 254 255 257 257 257 257 257 257 260 263 265 265 263 260 258 255 254 254 253 255 256 258 261 263 264 265 266 265 264
177 177 179 181 176 172 172 174 175 175 176 177 177 176 176 179 182 185 186 185 185 187 188 190 192 195 199 202 201 198 200 204 207 208 208 209 211 213 215 218 221 225 228 231 233 235 236 239 241 242 243 243 244 244 244 245 247 249 251 254 257 258 259 260 261 262 264 267 268 266 263 260 257 255 254 253 254 256 258 260 262 263 263 262 262 262
180 178 176 179 180 178 178 178 178 176 177 181 181 180 180 182 184 185 187 187 188 190 190 191 194 196 198 201 202 202 203 205 207 208 209 210 211 213 215 217 220 223 225 226 227 228 230 232 234 234 236 239 243 246 247 247 249 250 252 255 258 261 263 264 264 264 265 268 269 268 265 262 259 257 255 253 253 255 257 259 261 260 260 259 258 259
178 178 175 176 176 175 176 181 184 183 182 184 185 184 184 186 187 188 188 189 190 192 194 196 198 200 201 202 204 205 206 208 210 213 215 216 216 216 218 220 222 223 224 225 226 227 229 233 236 238 241 244 247 249 250 251 253 254 256 258 260 262 264 265 266 267 268 269 268 267 264 262 260 258 256 254 254 254 255 257 259 258 257 256 256 257
166 171 173 175 176 175 175 180 188 191 189 188 188 188 188 189 190 191 191 191 192 193 196 198 201 204 206 208 209 210 212 215 218 221 223 223 222 221 221 223 224 226 227 227 229 231 234 237 241 244 247 250 251 252 253 253 254 256 257 259 260 261 263 264 265 266 267 267 267 264 261 261 259 257 254 253 253 254 257 259 260 259 257 256 256 258
Height
5622 5625 5628 5637 5649 5659 5667 5673 5680 5691 5696 5699 5704 5709 5712 5718 5722 5724 5731 5735 5727 5731 5744 5748 5749 5753 5759 5764 5768 5772 5773 5774 5779 5782 5783 5784 5785 5785 5789 5793 5794 5797 5798 5797 5803 5806 5807 5811 5813 5815 5816 5817 5819 5821 5821 5822 5822 5824 5825 5826 5826 5828 5828 5828 5829 5830 5831 5831 5831 5830 5831 5831 5830 5830 5829 5829 5829 5829 5829 5830 5830 5830 5830 5830 5830 5830
5609 5612 5621 5637 5649 5655 5661 5667 5674 5683 5689 5696 5700 5703 5708 5713 5719 5722 5727 5732 5724 5725 5740 5747 5747 5749 5753 5759 5763 5766 5768 5769 5773 5777 5778 5779 5781 5782 5786 5790 5792 5795 5792 5793 5800 5803 5805 5808 5810 5812 5813 5815 5816 5817 5818 5818 5819 5821 5822 5823 5825 5825 5825 5825 5826 5827 5827 5827 5827 5827 5828 5828 5827 5827 5827 5826 5826 5826 5827 5827 5828 5828 5828 5827 5827 5827
5593 5603 5621 5636 5642 5647 5654 5660 5667 5676 5684 5690 5693 5697 5702 5706 5716 5722 5721 5724 5722 5723 5737 5743 5743 5746 5748 5754 5759 5761 5763 5766 5768 5772 5774 5775 5776 5778 5783 5786 5789 5791 5787 5790 5797 5800 5803 5806 5807 5809 5810 5811 5813 5814 5815 5815 5816 5818 5820 5822 5823 5822 5822 5822 5823 5824 5825 5825 5825 5825 5825 5825 5825 5825 5825 5825 5824 5824 5824 5825 5825 5825 5824 5824 5824 5824
5585 5603 5623 5629 5632 5640 5646 5654 5662 5670 5678 5683 5685 5692 5698 5701 5712 5717 5713 5718 5721 5722 5732 5739 5740 5742 5745 5748 5753 5756 5758 5761 5763 5767 5770 5771 5772 5775 5780 5783 5786 5786 5784 5787 5794 5797 5800 5803 5805 5806 5807 5808 5810 5810 5811 5812 5814 5816 5819 5820 5819 5818 5819 5820 5821 5822 5823 5824 5824 5823 5822 5822 5822 5822 5823 5822 5822 5821 5822 5822 5822 5822 5821 5821 5821 5821
5585 5606 5618 5618 5624 5633 5639 5647 5654 5661 5671 5675 5679 5689 5695 5698 5706 5712 5713 5716 5719 5722 5728 5736 5736 5737 5741 5744 5748 5751 5753 5756 5759 5762 5765 5767 5769 5772 5776 5779 5781 5782 5782 5785 5791 5795 5798 5800 5802 5803 5804 5805 5806 5807 5808 5809 5812 5816 5817 5816 5814 5816 5817 5818 5819 5820 5821 5821 5821 5821 5820 5819 5819 5819 5819 5819 5819 5818 5818 5818 5818 5818 5818 5818 5817 5818
5584 5600 5605 5608 5617 5625 5631 5639 5645 5655 5666 5669 5674 5685 5692 5696 5701 5709 5715 5713 5713 5720 5724 5730 5733 5732 5737 5740 5743 5747 5749 5752 5755 5758 5762 5764 5766 5769 5772 5775 5776 5778 5780 5784 5788 5792 5794 5797 5799 5800 5801 5802 5803 5804 5805 5808 5812 5814 5813 5811 5812 5814 5815 5816 5817 5818 5819 5819 5819 5818 5817 5817 5817 5817 5817 5816 5815 5815 5815 5814 5813 5814 5815 5814 5813 5814
5579 5589 5593 5601 5610 5618 5625 5632 5640 5651 5661 5663 5670 5682 5687 5693 5699 5704 5711 5708 5708 5717 5720 5725 5730 5730 5734 5737 5740 5743 5745 5748 5751 5754 5758 5761 5763 5765 5769 5771 5773 5776 5779 5782 5785 5788 5790 5793 5795 5797 5798 5799 5800 5801 5804 5808 5810 5810 5809 5809 5811 5813 5813 5814 5815 5816 5817 5817 5816 5815 5814 5814 5814 5815 5814 5813 5812 5811 5811 5809 5809 5811 5812 5812 5812 5813
5573 5581 5587 5595 5604 5612 5618 5626 5635 5645 5655 5658 5666 5677 5681 5688 5694 5698 5706 5706 5706 5715 5718 5721 5727 5728 5730 5734 5736 5739 5742 5744 5747 5751 5754 5756 5760 5762 5766 5769 5771 5775 5777 5779 5781 5784 5787 5789 5793 5795 5795 5796 5797 5799 5803 5806 5807 5806 5806 5808 5809 5810 5811 5812 5813 5813 5814 5814 5813 5812 5811 5812 5812 5812 5811 5809 5808 5808 5807 5806 5807 5809 5809 5810 5812 5812
5570 5576 5582 5590 5598 5606 5614 5623 5633 5642 5650 5656 5662 5671 5676 5684 5690 5695 5702 5704 5705 5712 5715 5716 5722 5724 5725 5730 5734 5734 5737 5739 5742 5747 5749 5753 5757 5760 5764 5767 5769 5772 5774 5776 5777 5780 5784 5787 5789 5791 5792 5793 5795 5797 5801 5803 5803 5803 5804 5805 5806 5808 5809 5810 5810 5810 5811 5811 5810 5810 5809 5809 5809 5809 5808 5807 5805 5804 5803 5803 5804 5806 5808 5809 5810 5809
5569 5573 5580 5588 5596 5603 5612 5622 5631 5638 5646 5653 5659 5665 5673 5682 5688 5691 5696 5700 5703 5707 5711 5713 5716 5720 5722 5728 5732 5730 5731 5736 5738 5743 5747 5750 5755 5757 5760 5764 5765 5768 5771 5774 5775 5777 5780 5783 5785 5787 5789 5790 5792 5796 5799 5800 5801 5800 5801 5802 5804 5805 5807 5808 5808 5808 5809 5808 5807 5807 5807 5807 5807 5807 5806 5804 5803 5802 5801 5800 5802 5804 5806 5807 5807 5807
5570 5574 5577 5585 5593 5601 5609 5617 5624 5632 5641 5651 5656 5660 5671 5679 5682 5685 5692 5698 5701 5701 5706 5712 5713 5716 5720 5725 5729 5727 5728 5733 5736 5740 5744 5748 5750 5753 5757 5760 5762 5765 5769 5772 5773 5774 5777 5779 5781 5784 5785 5787 5790 5794 5796 5798 5797 5797 5798 5800 5802 5803 5804 5805 5805 5805 5806 5805 5804 5804 5805 5804 5804 5804 5803 5802 5801 5800 5799 5799 5801 5802 5803 5804 5804 5805
5568 5571 5575 5583 5592 5599 5605 5611 5620 5629 5637 5647 5654 5657 5665 5672 5676 5682 5688 5692 5695 5695 5701 5710 5711 5711 5715 5722 5726 5725 5725 5729 5734 5738 5742 5744 5746 5750 5754 5758 5760 5763 5766 5769 5770 5771 5774 5777 5778 5780 5782 5785 5788 5791 5794 5795 5794 5793 5796 5798 5800 5801 5802 5803 5802 5802 5802 5802 5801 5801 5802 5802 5801 5801 5801 5800 5799 5798 5798 5798 5799 5799 5799 5801 5802 5802
5564 5570 5577 5584 5589 5595 5600 5609 5618 5624 5632 5643 5649 5651 5658 5665 5671 5677 5682 5685 5690 5693 5698 5705 5707 5706 5711 5718 5723 5724 5723 5726 5732 5736 5737 5741 5745 5748 5752 5755 5757 5760 5763 5765 5766 5768 5771 5774 5776 5778 5780 5782 5786 5789 5791 5791 5790 5791 5793 5795 5797 5799 5801 5801 5800 5799 5799 5799 5799 5799 5799 5799 5799 5798 5798 5798 5797 5796 5796 5796 5795 5795 5797 5798 5799 5799
5564 5570 5577 5581 5585 5590 5596 5606 5613 5617 5627 5637 5641 5645 5653 5660 5664 5670 5677 5682 5686 5690 5694 5700 5703 5703 5708 5715 5719 5721 5719 5721 5728 5731 5732 5738 5742 5745 5750 5752 5754 5757 5760 5762 5763 5764 5768 5771 5773 5775 5777 5780 5783 5785 5787 5788 5788 5787 5790 5792 5795 5798 5799 5798 5797 5796 5796 5796 5796 5796 5796 5797 5796 5795 5794 5794 5794 5794 5793 5792 5792 5793 5794 5795 5796 5797
5563 5567 5573 5578 5584 5588 5594 5603 5610 5616 5628 5635 5638 5645 5654 5659 5662 5669 5676 5679 5683 5688 5692 5697 5699 5701 5708 5712 5714 5716 5715 5717 5724 5727 5730 5736 5739 5742 5746 5749 5751 5754 5757 5760 5761 5762 5765 5768 5770 5772 5775 5777 5780 5782 5784 5785 5785 5784 5786 5790 5793 5796 5796 5796 5794 5793 5793 5793 5793 5793 5794 5794 5793 5792 5791 5791 5791 5790 5790 5789 5789 5790 5791 5792 5794 5795
5564 5569 5573 5579 5585 5589 5595 5603 5609 5618 5628 5633 5636 5645 5653 5659 5664 5670 5675 5678 5681 5686 5690 5693 5695 5699 5705 5706 5707 5710 5711 5715 5723 5727 5729 5734 5737 5740 5743 5745 5748 5752 5754 5757 5758 5760 5763 5765 5767 5769 5771 5774 5776 5779 5781 5783 5782 5782 5784 5787 5791 5793 5794 5792 5791 5790 5790 5790 5791 5792 5792 5792 5791 5789 5788 5788 5787 5787 5787 5787 5787 5787 5789 5790 5792 5793
5566 5570 5574 5579 5585 5590 5596 5602 5607 5615 5625 5628 5632 5641 5650 5659 5665 5668 5673 5677 5679 5684 5687 5688 5691 5696 5700 5700 5702 5706 5709 5715 5724 5726 5727 5731 5735 5738 5740 5743 5747 5749 5751 5754 5756 5757 5759 5762 5764 5766 5767 5770 5774 5776 5778 5780 5779 5779 5782 5786 5789 5790 5790 5789 5788 5787 5787 5788 5789 5789 5789 5789 5788 5786 5786 5785 5785 5784 5784 5784 5784 5785 5787 5789 5790 5791
5567 5571 5573 5577 5583 5588 5595 5602 5607 5615 5622 5625 5630 5640 5649 5658 5664 5666 5671 5674 5676 5683 5685 5684 5687 5693 5697 5698 5699 5704 5710 5717 5722 5723 5724 5728 5732 5735 5739 5742 5745 5746 5749 5751 5753 5754 5755 5758 5761 5763 5764 5767 5771 5774 5776 5777 5776 5777 5780 5784 5786 5787 5786 5785 5784 5784 5785 5786 5786 5786 5787 5786 5785 5784 5784 5783 5782 5781 5780 5781 5782 5783 5785 5787 5788 5790
5565 5570 5573 5578 5582 5587 5594 5601 5606 5612 5619 5625 5633 5641 5646 5653 5659 5662 5666 5669 5673 5680 5682 5680 5684 5690 5694 5695 5696 5702 5710 5715 5717 5719 5721 5725 5729 5733 5737 5740 5741 5743 5746 5747 5748 5750 5753 5756 5758 5760 5762 5765 5768 5771 5773 5774 5774 5775 5779 5782 5784 5784 5783 5782 5782 5782 5783 5783 5783 5784 5785 5785 5784 5783 5782 5781 5780 5778 5777 5778 5780 5781 5782 5784 5786 5787
5564 5569 5573 5578 5583 5588 5592 5595 5601 5607 5614 5624 5633 5639 5644 5651 5656 5658 5661 5665 5671 5676 5678 5680 5683 5687 5691 5694 5694 5700 5708 5712 5714 5717 5720 5723 5727 5731 5735 5736 5738 5741 5743 5744 5745 5748 5751 5754 5755 5758 5760 5763 5766 5768 5770 5771 5772 5774 5777 5779 5780 5780 5780 5779 5779 5781 5782 5782 5782 5783 5784 5784 5783 5781 5781 5780 5778 5776 5776 5777 5778 5780 5781 5783 5784 5785
5563 5569 5573 5578 5584 5589 5591 5593 5598 5604 5611 5619 5627 5634 5641 5647 5652 5655 5659 5664 5669 5673 5676 5679 5683 5685 5689 5692 5693 5698 5706 5710 5712 5715 5718 5722 5726 5729 5731 5733 5735 5738 5740 5741 5744 5747 5749 5751 5753 5756 5758 5761 5763 5765 5767 5768 5770 5772 5774 5777 5777 5777 5776 5776 5778 5781 5782 5781 5781 5782 5782 5782 5780 5779 5779 5778 5777 5775 5776 5776 5777 5779 5781 5782 5783 5783
5563 5568 5573 5578 5582 5586 5592 5596 5600 5605 5612 5618 5625 5633 5640 5643 5647 5653 5657 5662 5668 5672 5675 5678 5683 5686 5687 5689 5693 5698 5704 5708 5711 5713 5717 5720 5723 5725 5728 5730 5733 5736 5739 5740 5742 5745 5746 5749 5751 5754 5757 5759 5761 5762 5764 5766 5768 5770 5772 5774 5774 5773 5774 5775 5779 5781 5780 5780 5780 5780 5780 5779 5778 5777 5777 5776 5775 5775 5776 5776 5776 5778 5779 5780 5781 5782
5564 5568 5573 5579 5584 5589 5593 5597 5600 5606 5613 5619 5625 5633 5640 5642 5644 5651 5657 5661 5666 5672 5676 5678 5683 5686 5685 5686 5692 5697 5702 5706 5707 5710 5714 5717 5720 5722 5724 5727 5730 5734 5736 5738 5740 5742 5744 5747 5750 5752 5755 5756 5758 5760 5762 5764 5766 5768 5770 5771 5771 5771 5773 5775 5777 5778 5778 5779 5779 5779 5778 5777 5776 5776 5776 5776 5775 5774 5775 5776 5776 5776 5778 5779 5779 5780
5566 5570 5573 5579 5586 5592 5595 5598 5602 5608 5612 5617 5623 5630 5636 5639 5643 5651 5658 5660 5664 5671 5676 5679 5681 5681 5682 5686 5691 5695 5699 5701 5703 5706 5711 5713 5716 5718 5721 5725 5729 5732 5734 5736 5738 5740 5742 5745 5748 5750 5752 5754 5756 5758 5760 5762 5764 5766 5768 5769 5770 5770 5771 5772 5774 5775 5776 5778 5778 5778 5777 5777 5776 5775 5776 5775 5774 5774 5774 5775 5775 5775 5776 5778 5778 5779
5568 5571 5575 5578 5582 5588 5592 5595 5599 5604 5609 5614 5619 5625 5632 5637 5642 5650 5657 5660 5663 5669 5674 5678 5680 5679 5681 5686 5689 5692 5696 5698 5700 5704 5707 5710 5713 5716 5719 5723 5726 5729 5731 5733 5736 5738 5741 5743 5746 5748 5750 5752 5754 5756 5758 5760 5762 5764 5766 5767 5768 5768 5768 5769 5770 5772 5774 5776 5776 5776 5776 5775 5775 5775 5774 5773 5772 5772 5772 5773 5774 5774 5775 5776 5777 5777
5569 5572 5574 5578 5582 5585 5587 5591 5596 5602 5607 5613 5619 5624 5630 5636 5640 5647 5655 5659 5661 5665 5671 5677 5678 5678 5681 5685 5686 5689 5692 5694 5698 5701 5704 5707 5711 5713 5717 5721 5723 5726 5729 5731 5734 5737 5739 5742 5744 5746 5748 5750 5752 5755 5757 5759 5760 5762 5764 5765 5766 5766 5766 5766 5767 5769 5772 5774 5774 5773 5773 5773 5772 5772 5771 5770 5770 5770 5770 5772 5773 5773 5773 5774 5775 5775
5570 5573 5575 5579 5586 5591 5594 5598 5603 5608 5611 5615 5620 5624 5629 5634 5639 5644 5651 5656 5659 5663 5670 5674 5675 5676 5680 5682 5684 5687 5689 5692 5695 5698 5701 5705 5708 5711 5715 5718 5722 5724 5727 5730 5733 5735 5737 5739 5742 5744 5746 5749 5751 5753 5755 5757 5758 5759 5761 5763 5763 5763 5764 5764 5765 5767 5769 5771 5771 5770 5770 5770 5769 5769 5768 5768 5768 5768 5768 5770 5771 5771 5772 5772 5773 5774
5571 5575 5577 5581 5587 5594 5598 5601 5604 5607 5612 5615 5619 5623 5627 5632 5637 5641 5648 5654 5659 5664 5670 5672 5672 5675 5677 5679 5681 5684 5687 5690 5693 5696 5699 5703 5706 5709 5713 5716 5720 5722 5725 5729 5731 5733 5735 5738 5740 5742 5745 5747 5749 5751 5753 5754 5755 5757 5759 5760 5761 5762 5762 5762 5763 5765 5767 5768 5769 5769 5768 5767 5767 5766 5766 5766 5767 5767 5767 5768 5768 5769 5770 5771 5772 5773
5574 5577 5579 5581 5585 5591 5596 5600 5602 5606 5611 5615 5618 5622 5626 5630 5635 5639 5646 5654 5660 5664 5667 5669 5670 5673 5675 5676 5679 5682 5684 5687 5690 5694 5697 5701 5704 5708 5711 5715 5718 5721 5724 5727 5730 5732 5734 5736 5738 5740 5743 5746 5747 5749 5750 5751 5753 5755 5757 5758 5759 5760 5759 5760 5762 5763 5764 5766 5767 5767 5767 5766 5766 5765 5765 5766 5765 5765 5765 5766 5766 5768 5768 5769 5770 5771
5576 5579 5581 5584 5587 5591 5596 5600 5604 5607 5611 5615 5618 5622 5626 5629 5634 5638 5644 5651 5658 5661 5663 5665 5668 5671 5673 5675 5677 5680 5683 5685 5689 5692 5696 5699 5703 5706 5709 5713 5716 5719 5723 5725 5728 5730 5732 5734 5736 5739 5741 5743 5745 5746 5748 5749 5751 5753 5755 5756 5757 5757 5757 5759 5761 5761 5762 5764 5765 5766 5766 5765 5764 5764 5765 5765 5764 5764 5764 5764 5765 5766 5767 5768 5769 5770
5577 5580 5583 5586 5589 5592 5596 5600 5603 5607 5611 5614 5618 5622 5625 5628 5632 5636 5640 5646 5651 5655 5658 5663 5666 5669 5672 5674 5676 5679 5681 5684 5687 5691 5695 5698 5701 5705 5708 5711 5715 5718 5721 5724 5726 5728 5731 5733 5735 5737 5739 5741 5743 5744 5746 5748 5749 5751 5753 5754 5755 5755 5756 5758 5759 5760 5761 5762 5762 5763 5764 5764 5763 5763 5763 5764 5763 5763 5763 5764 5764 5765 5766 5767 5768 5769
5578 5581 5584 5587 5589 5592 5595 5599 5602 5606 5610 5614 5617 5620 5624 5627 5631 5634 5638 5644 5650 5654 5658 5663 5667 5669 5671 5673 5675 5678 5680 5683 5686 5690 5693 5697 5700 5703 5707 5710 5714 5717 5720 5723 5725 5727 5729 5731 5733 5735 5737 5739 5741 5742 5744 5746 5748 5750 5751 5752 5753 5753 5755 5756 5757 5758 5759 5760 5760 5761 5762 5762 5762 5762 5762 5763 5763 5763 5763 5763 5764 5764 5765 5766 5767 5767
5578 5582 5585 5588 5590 5593 5597 5601 5603 5606 5610 5613 5616 5620 5625 5629 5632 5636 5641 5647 5653 5656 5659 5662 5666 5668 5670 5672 5674 5677 5679 5682 5685 5689 5692 5696 5699 5702 5705 5709 5712 5715 5718 5721 5723 5725 5727 5729 5731 5733 5735 5737 5739 5741 5743 5745 5747 5748 5749 5750 5751 5752 5753 5755 5755 5756 5757 5758 5758 5759 5760 5760 5761 5761 5761 5762 5762 5762 5762 5763 5763 5764 5764 5765 5765 5766
5580 5584 5587 5589 5591 5594 5598 5602 5604 5607 5609 5612 5617 5622 5626 5630 5633 5639 5645 5649 5653 5657 5658 5660 5663 5666 5668 5670 5672 5675 5678 5681 5684 5687 5691 5694 5697 5701 5704 5708 5711 5713 5716 5718 5721 5723 5725 5727 5729 5731 5734 5736 5738 5740 5742 5744 5745 5746 5746 5748 5749 5750 5752 5753 5754 5754 5755 5756 5756 5757 5758 5759 5759 5760 5760 5760 5761 5761 5761 5762 5762 5762 5763 5763 5764 5764
5581 5584 5586 5589 5592 5595 5598 5601 5604 5607 5611 5614 5617 5621 5625 5630 5635 5640 5646 5649 5653 5657 5659 5661 5663 5665 5667 5669 5671 5674 5677 5679 5682 5686 5689 5693 5696 5700 5703 5707 5710 5712 5714 5716 5719 5721 5723 5726 5728 5730 5732 5734 5736 5738 5741 5742 5743 5743 5745 5746 5748 5749 5750 5751 5752 5753 5753 5754 5755 5755 5756 5757 5758 5758 5759 5759 5759 5759 5760 5760 5760 5760 5761 5761 5762 5762
5581 5584 5586 5588 5592 5595 5598 5602 5604 5608 5612 5615 5618 5621 5625 5629 5634 5639 5644 5649 5653 5656 5658 5661 5663 5665 5667 5669 5671 5674 5676 5679 5682 5685 5688 5692 5695 5699 5703 5706 5708 5710 5713 5715 5718 5720 5722 5724 5727 5729 5731 5733 5735 5737 5739 5740 5741 5742 5744 5745 5746 5747 5748 5749 5749 5751 5751 5752 5753 5754 5755 5756 5756 5757 5757 5757 5758 5758 5758 5758 5759 5759 5759 5759 5760 5761
5583 5586 5588 5590 5592 5596 5600 5603 5606 5609 5613 5616 5618 5621 5625 5629 5633 5638 5642 5646 5649 5652 5655 5658 5662 5664 5667 5669 5671 5673 5676 5678 5680 5683 5687 5691 5694 5697 5701 5704 5706 5709 5711 5714 5716 5718 5720 5723 5725 5727 5729 5731 5733 5735 5737 5738 5740 5741 5742 5743 5743 5744 5745 5746 5747 5748 5749 5750 5751 5751 5752 5754 5755 5755 5756 5756 5756 5756 5756 5757 5757 5757 5757 5758 5758 5758
5585 5587 5589 5590 5593 5598 5601 5604 5607 5610 5612 5615 5617 5621 5625 5629 5633 5636 5639 5643 5646 5650 5654 5658 5661 5663 5666 5668 5671 5673 5675 5677 5679 5681 5684 5687 5692 5695 5698 5701 5704 5707 5710 5712 5714 5717 5719 5721 5723 5725 5727 5730 5732 5733 5735 5737 5738 5739 5740 5740 5741 5741 5743 5744 5745 5746 5747 5747 5748 5749 5750 5751 5752 5753 5754 5754 5754 5755 5755 5755 5755 5755 5755 5755 5756 5756
5587 5589 5591 5592 5595 5599 5603 5606 5608 5610 5613 5615 5618 5621 5626 5630 5634 5637 5641 5644 5647 5650 5653 5657 5659 5662 5665 5667 5670 5672 5674 5677 5679 5681 5681 5683 5688 5693 5696 5700 5703 5705 5708 5710 5713 5715 5717 5719 5721 5724 5726 5728 5730 5731 5733 5734 5735 5736 5737 5737 5738 5739 5740 5741 5742 5743 5744 5745 5745 5746 5747 5748 5749 5750 5751 5751 5752 5752 5752 5752 5752 5752 5752 5752 5752 5752
5589 5591 5593 5594 5597 5600 5604 5607 5609 5611 5613 5615 5618 5622 5626 5630 5634 5638 5641 5644 5646 5650 5653 5656 5658 5661 5664 5666 5669 5671 5673 5675 5678 5681 5683 5684 5687 5691 5695 5699 5702 5704 5706 5709 5711 5713 5715 5717 5720 5723 5725 5726 5728 5729 5730 5731 5732 5734 5734 5735 5736 5736 5737 5738 5740 5741 5741 5742 5743 5743 5744 5745 5746 5747 5747 5748 5748 5749 5749 5749 5749 5749 5749 5749 5749 5749
5590 5593 5595 5597 5599 5602 5604 5606 5608 5611 5614 5616 5619 5622 5626 5629 5633 5637 5639 5642 5645 5648 5652 5656 5658 5661 5663 5666 5668 5670 5673 5675 5679 5681 5683 5685 5688 5691 5695 5697 5700 5702 5705 5707 5709 5711 5714 5716 5719 5721 5722 5724 5725 5726 5727 5728 5730 5731 5732 5733 5733 5733 5734 5735 5737 5738 5738 5739 5740 5741 5741 5742 5742 5743 5744 5744 5745 5745 5745 5745 5745 5745 5745 5745 5746 5745
5592 5594 5596 5598 5600 5603 5605 5606 5609 5611 5614 5616 5619 5623 5626 5630 5633 5636 5639 5642 5644 5647 5652 5655 5658 5660 5663 5665 5667 5669 5672 5676 5679 5681 5683 5685 5688 5691 5694 5697 5699 5701 5704 5706 5708 5710 5713 5715 5717 5719 5720 5722 5723 5724 5725 5726 5728 5729 5729 5730 5730 5731 5731 5732 5733 5734 5735 5736 5737 5738 5738 5739 5739 5740 5741 5741 5741 5741 5742 5742 5742 5742 5742 5742 5742 5742
5592 5595 5597 5598 5600 5602 5605 5607 5609 5611 5614 5616 5619 5623 5626 5629 5632 5636 5639 5641 5644 5647 5651 5654 5657 5659 5662 5663 5666 5669 5672 5675 5678 5680 5683 5685 5688 5691 5694 5696 5699 5701 5702 5704 5707 5709 5711 5713 5715 5717 5718 5720 5721 5722 5723 5724 5725 5726 5727 5727 5728 5728 5729 5730 5731 5731 5732 5733 5734 5735 5735 5736 5736 5737 5737 5738 5738 5738 5739 5739 5739 5739 5739 5739 5739 5739
5593 5595 5596 5598 5600 5603 5605 5607 5610 5612 5614 5616 5619 5622 5626 5629 5632 5636 5638 5641 5644 5647 5650 5652 5655 5658 5661 5663 5665 5668 5671 5674 5677 5679 5682 5684 5687 5690 5693 5695 5697 5699 5701 5703 5705 5707 5710 5711 5713 5715 5716 5717 5718 5719 5720 5721 5722 5723 5724 5725 5725 5726 5727 5727 5728 5728 5729 5730 5730 5731 5732 5733 5733 5734 5734 5735 5735 5735 5735 5736 5736 5736 5736 5736 5736 5736
5594 5596 5597 5600 5602 5604 5606 5608 5610 5613 5614 5617 5620 5623 5627 5630 5633 5636 5638 5641 5644 5647 5649 5651 5654 5656 5659 5662 5664 5667 5670 5673 5675 5678 5681 5683 5686 5689 5691 5694 5696 5698 5699 5701 5703 5706 5707 5709 5710 5712 5713 5714 5716 5717 5718 5719 5719 5720 5721 5722 5723 5724 5725 5725 5726 5726 5726 5727 5727 5728 5729 5729 5730 5731 5731 5732 5732 5732 5732 5732 5732 5733 5733 5733 5733 5733
5596 5598 5600 5602 5603 5605 5606 5609 5611 5612 5614 5617 5620 5624 5627 5630 5633 5636 5638 5641 5644 5646 5649 5652 5654 5655 5658 5661 5664 5666 5669 5672 5674 5677 5679 5682 5685 5687 5689 5692 5694 5696 5698 5700 5702 5704 5705 5706 5707 5709 5711 5712 5713 5714 5715 5716 5716 5717 5718 5719 5719 5721 5722 5722 5723 5724 5724 5724 5725 5725 5726 5726 5726 5727 5728 5728 5729 5729 5729 5729 5729 5730 5730 5730 5730 5730
5598 5599 5601 5604 5605 5606 5607 5609 5611 5613 5615 5617 5620 5624 5627 5630 5633 5635 5638 5641 5644 5646 5649 5652 5654 5655 5656 5659 5662 5665 5668 5670 5673 5675 5678 5681 5683 5685 5688 5690 5692 5694 5696 5698 5700 5701 5703 5704 5705 5707 5708 5709 5709 5710 5712 5712 5713 5714 5715 5716 5716 5718 5719 5719 5720 5721 5722 5722 5722 5723 5723 5723 5723 5724 5724 5725 5725 5726 5726 5726 5727 5727 5727 5727 5727 5726
5600 5600 5602 5604 5606 5607 5609 5611 5612 5614 5616 5618 5621 5623 5626 5629 5632 5635 5638 5640 5643 5646 5648 5651 5653 5655 5656 5658 5660 5663 5666 5669 5671 5674 5676 5679 5681 5683 5686 5688 5690 5692 5694 5696 5698 5699 5700 5702 5703 5704 5705 5705 5706 5707 5708 5709 5709 5710 5712 5712 5713 5714 5715 5716 5717 5718 5719 5719 5719 5720 5720 5720 5720 5720 5721 5722 5722 5723 5723 5724 5724 5724 5723 5723 5723 5723
5600 5601 5603 5605 5606 5608 5610 5611 5613 5614 5616 5619 5621 5623 5626 5628 5631 5634 5636 5639 5642 5645 5647 5650 5652 5654 5656 5658 5660 5662 5665 5668 5670 5672 5674 5676 5679 5681 5683 5685 5688 5690 5692 5693 5695 5696 5697 5698 5699 5700 5701 5702 5703 5704 5704 5705 5706 5707 5708 5709 5710 5711 5712 5712 5713 5714 5715 5716 5716 5716 5717 5717 5717 5717 5718 5718 5719 5720 5720 5720 5720 5720 5720 5720 5720 5720
5601 5603 5604 5606 5607 5608 5610 5612 5613 5615 5616 5618 5621 5623 5625 5627 5630 5633 5635 5638 5641 5643 5646 5648 5650 5653 5655 5658 5660 5662 5664 5666 5668 5671 5672 5674 5676 5679 5681 5683 5685 5687 5689 5691 5692 5693 5694 5695 5696 5698 5699 5700 5700 5701 5702 5702 5703 5704 5705 5706 5707 5707 5708 5709 5709 5710 5711 5712 5712 5713 5713 5713 5714 5715 5715 5715 5716 5716 5717 5717 5717 5717 5717 5717 5717 5717
5603 5605 5605 5606 5607 5608 5610 5611 5613 5614 5616 5618 5620 5622 5625 5627 5629 5632 5634 5637 5639 5641 5644 5646 5648 5651 5653 5656 5658 5660 5662 5664 5666 5668 5670 5672 5674 5676 5678 5680 5682 5684 5686 5688 5689 5690 5692 5693 5694 5695 5696 5697 5697 5698 5699 5699 5700 5701 5702 5702 5703 5704 5705 5705 5706 5707 5708 5708 5709 5709 5709 5710 5711 5712 5712 5712 5713 5713 5713 5713 5713 5714 5714 5714 5714 5714